BERGEN/FLESLAND_AFB current weather conditions

sailwx.info

Wind from 240 at 9 knots

Air temperature 8.0° C
Visibility: greater than 5.4 NM
Dewpoint 8.0° C
Present weather: Showers in the vicinity.

Last reported at 2018-Apr-23 15:50 UTC.
Time now 2018-Apr-23 17:26 UTC

Location: N 60°18' E 005°13'.
View on Google Maps.

See reports from other nearby stations

  
Tides and Currents Weather Stations Pressure Air Temp Water Temp Dewpoint Dewpoint Depression Visibility Wind Speed Wind Dir Waves Ship Positions
date/time (UTC)wind fromknots sea level pressurealtimeterstation pressurevisibilityair tempwater tempwave heightnotes
2018-Apr-23 16:50 230 9 5.4 7.0 Showers in the vicinity.
2018-Apr-23 16:20 230 8 5.4 7.0
2018-Apr-23 15:50 240 9 5.4 8.0 Showers in the vicinity.
2018-Apr-23 15:20 240 9 5.4 7.0 Showers in the vicinity.
2018-Apr-23 14:50 230 11 5.4 7.0 Showers in the vicinity.
2018-Apr-23 14:20 200 11 1.3 7.0 Light rain. Mist.
2018-Apr-23 13:50 190 11 1.9 7.0 Light rain. Mist.
2018-Apr-23 13:20 190 13 1.1 7.0 Light rain. Mist.
2018-Apr-23 12:50 180 13 4.3 7.0 Light rain.
2018-Apr-23 12:20 170 11 4.3 7.0 Light rain.
2018-Apr-23 11:50 180 12 5.4 7.0 Light rain.
2018-Apr-23 11:20 160 9 5.4 8.0 Light rain.
2018-Apr-23 10:50 170 11 4.3 7.0
2018-Apr-23 10:20 180 12 5.4 7.0
2018-Apr-23 09:50 180 11 5.4 7.0
2018-Apr-23 09:20 190 9 3.2 7.0
2018-Apr-23 08:50 190 9 2.4 7.0 Mist.
2018-Apr-23 08:20 200 11 2.4 7.0 Mist.
2018-Apr-23 07:50 180 13 2.4 7.0 Mist.
2018-Apr-23 07:20 180 11 2.4 7.0 Mist.
2018-Apr-23 06:50 180 13 2.2 7.0 Mist.
2018-Apr-23 06:20 190 12 1.9 6.0 Mist.
2018-Apr-23 05:50 190 12 1.9 6.0 Mist.
2018-Apr-23 05:20 190 13 1.6 6.0 Mist.
2018-Apr-23 04:50 190 15 2.2 7.0 Mist.
2018-Apr-23 04:20 190 13 3.2 7.0
2018-Apr-23 03:50 190 13 3.8 7.0
2018-Apr-23 03:20 180 17 3.2 7.0
2018-Apr-23 02:50 170 17 1.6 7.0 Light rain drizzle. Mist.
2018-Apr-23 01:50 190 12 1.6 7.0 Drizzle. Mist.
2018-Apr-23 00:50 180 11 2.2 7.0 Light drizzle. Mist.
2018-Apr-22 23:50 190 13 3.8 8.0 Light rain drizzle.
2018-Apr-22 22:50 190 11 5.4 9.0 Light rain showers.
2018-Apr-22 21:50 150 9 5.410.0 Rain showers.
2018-Apr-22 21:20 160 13 5.410.0
2018-Apr-22 20:50 150 9 5.410.0 Rain showers.
2018-Apr-22 20:20 150 12 5.410.0 Rain.
2018-Apr-22 19:50 140 13 5.410.0 Light drizzle.
2018-Apr-22 19:20 140 13 5.410.0
2018-Apr-22 18:50 130 12 4.9 9.0 Light rain drizzle.
2018-Apr-22 18:20 140 11 4.9 9.0 Light rain drizzle.
2018-Apr-22 17:50 150 12 4.9 9.0 Rain.
2018-Apr-22 17:20 150 11 3.8 9.0 Light rain drizzle.
2018-Apr-22 16:50 140 9 5.4 9.0 Light rain.
2018-Apr-22 16:20 140 8 5.4 9.0 Light rain.
2018-Apr-22 15:50 150 7 4.9 9.0 Light rain.
2018-Apr-22 15:20 170 6 5.4 8.0 Rain.
2018-Apr-22 14:50 150 7 4.9 8.0 Light rain.
2018-Apr-22 14:20 160 9 5.4 9.0 Light rain drizzle.
2018-Apr-22 13:50 160 9 5.410.0 Light rain.
2018-Apr-22 13:20 150 5 5.410.0 Light rain.
2018-Apr-22 12:50 130 7 5.4 9.0
2018-Apr-22 12:20 150 7 5.4 9.0 Showers in the vicinity.
2018-Apr-22 11:50 200 7 5.4 9.0 Light rain.
2018-Apr-22 11:20 190 9 5.410.0 Showers in the vicinity.
2018-Apr-22 10:50 190 9 5.411.0
2018-Apr-22 10:20 150 9 5.412.0
2018-Apr-22 09:50 170 12 5.412.0
2018-Apr-22 09:20 210 8 5.411.0
2018-Apr-22 08:50 170 9 5.411.0
2018-Apr-22 08:20 150 6 5.410.0
2018-Apr-22 07:50 130 6 5.4 9.0
2018-Apr-22 07:20 130 6 5.4 9.0
2018-Apr-22 06:50 150 6 5.4 8.0
2018-Apr-22 06:20 130 5 5.4 6.0
2018-Apr-22 05:50 140 4 5.4 5.0
2018-Apr-22 05:20 110 2 5.4 3.0
2018-Apr-22 04:50 5.4 3.0
2018-Apr-22 04:20 120 2 5.4 3.0
2018-Apr-22 03:50 170 2 5.4 3.0
2018-Apr-22 02:50 130 2 5.4 3.0
2018-Apr-22 01:50 080 1 5.4 3.0
2018-Apr-22 00:50 5.4 3.0
2018-Apr-21 23:50 120 1 5.4 4.0
2018-Apr-21 22:50 5.4 5.0
2018-Apr-21 21:50 130 1 5.4 4.0
2018-Apr-21 21:20 090 2 5.4 5.0
2018-Apr-21 20:50 080 1 5.4 5.0
2018-Apr-21 20:20 5.4 5.0
2018-Apr-21 19:50 230 1 5.4 6.0
2018-Apr-21 19:20 190 2 5.4 7.0
2018-Apr-21 18:50 200 4 5.4 7.0
2018-Apr-21 18:20 210 5 5.4 7.0
2018-Apr-21 17:50 240 6 5.4 8.0
2018-Apr-21 17:20 250 5 5.4 8.0